Time,TemperatureF,DewpointF,PressureIn,WindDirection,WindDirectionDegrees,WindSpeedMPH,WindSpeedGustMPH,Humidity,HourlyPrecipIn,Conditions,Clouds,dailyrainin,SoftwareType,DateUTC
2013-07-08 00:02:00,57.0,39.0,-100.00,WSW,250,6.0,11.0,51,0.00,,,0.04,,2013-07-08 08:02:00,
2013-07-08 00:11:00,57.0,39.0,-100.00,WSW,250,6.0,11.0,51,0.00,,,0.04,,2013-07-08 08:11:00,
2013-07-08 00:33:00,55.0,39.0,-100.00,West,260,4.0,7.0,54,0.00,,,0.04,,2013-07-08 08:33:00,
2013-07-08 00:42:00,55.0,39.0,-100.00,West,260,4.0,7.0,54,0.00,,,0.04,,2013-07-08 08:42:00,
2013-07-08 00:52:00,54.0,40.0,-100.00,WSW,250,3.0,9.0,57,0.00,,,0.04,,2013-07-08 08:52:00,
2013-07-08 01:01:00,54.0,40.0,-100.00,WSW,250,3.0,9.0,57,0.00,,,0.04,,2013-07-08 09:01:00,
2013-07-08 01:11:00,54.0,40.0,-100.00,WSW,250,3.0,9.0,57,0.00,,,0.04,,2013-07-08 09:11:00,
2013-07-08 01:34:00,54.0,40.0,-100.00,SW,220,3.0,7.0,58,0.00,,,0.04,,2013-07-08 09:34:00,
2013-07-08 01:43:00,54.0,40.0,-100.00,SW,220,3.0,7.0,58,0.00,,,0.04,,2013-07-08 09:43:00,
2013-07-08 01:52:00,53.0,40.0,-100.00,WSW,250,2.0,8.0,60,0.00,,,0.04,,2013-07-08 09:52:00,
2013-07-08 02:01:00,53.0,40.0,-100.00,WSW,250,2.0,8.0,60,0.00,,,0.04,,2013-07-08 10:01:00,
2013-07-08 02:11:00,53.0,40.0,-100.00,WSW,250,2.0,8.0,60,0.00,,,0.04,,2013-07-08 10:11:00,
2013-07-08 02:34:00,53.0,40.0,-100.00,WSW,240,2.0,4.0,61,0.00,,,0.04,,2013-07-08 10:34:00,
2013-07-08 02:43:00,53.0,40.0,-100.00,WSW,240,2.0,4.0,61,0.00,,,0.04,,2013-07-08 10:43:00,
2013-07-08 02:53:00,53.0,40.0,-100.00,WSW,240,4.0,6.0,61,0.00,,,0.04,,2013-07-08 10:53:00,
2013-07-08 03:02:00,53.0,40.0,-100.00,WSW,240,4.0,6.0,61,0.00,,,0.04,,2013-07-08 11:02:00,
2013-07-08 03:11:00,53.0,40.0,-100.00,WSW,240,4.0,6.0,61,0.00,,,0.04,,2013-07-08 11:11:00,
2013-07-08 03:22:00,54.0,40.0,-100.00,West,280,5.0,11.0,58,0.00,,,0.04,,2013-07-08 11:22:00,
2013-07-08 03:33:00,54.0,40.0,-100.00,West,280,5.0,11.0,58,0.00,,,0.04,,2013-07-08 11:33:00,
2013-07-08 03:43:00,54.0,40.0,-100.00,West,280,5.0,11.0,58,0.00,,,0.04,,2013-07-08 11:43:00,
2013-07-08 03:52:00,53.0,40.0,-100.00,West,280,4.0,7.0,60,0.00,,,0.04,,2013-07-08 11:52:00,
2013-07-08 04:01:00,53.0,40.0,-100.00,West,280,4.0,7.0,60,0.00,,,0.04,,2013-07-08 12:01:00,
2013-07-08 04:11:00,53.0,40.0,-100.00,West,280,4.0,7.0,60,0.00,,,0.04,,2013-07-08 12:11:00,
2013-07-08 04:33:00,51.0,38.0,-100.00,SW,215,5.0,9.0,61,0.00,,,0.04,,2013-07-08 12:33:00,
2013-07-08 04:43:00,51.0,38.0,-100.00,SW,215,5.0,9.0,61,0.00,,,0.04,,2013-07-08 12:43:00,
2013-07-08 04:53:00,52.0,41.0,-100.00,West,280,10.0,14.0,66,0.00,,,0.04,,2013-07-08 12:53:00,
2013-07-08 05:01:00,52.0,41.0,-100.00,West,280,10.0,14.0,66,0.00,,,0.04,,2013-07-08 13:01:00,
2013-07-08 05:11:00,52.0,41.0,-100.00,West,280,10.0,14.0,66,0.00,,,0.04,,2013-07-08 13:11:00,
2013-07-08 05:33:00,51.0,44.0,-100.00,WNW,285,6.0,14.0,77,0.00,,,0.04,,2013-07-08 13:33:00,
2013-07-08 05:42:00,51.0,44.0,-100.00,WNW,285,6.0,14.0,77,0.00,,,0.04,,2013-07-08 13:42:00,
2013-07-08 05:53:00,51.0,46.0,-100.00,NW,320,4.0,9.0,83,0.00,,,0.04,,2013-07-08 13:53:00,
2013-07-08 06:02:00,51.0,46.0,-100.00,NW,320,4.0,9.0,83,0.00,,,0.04,,2013-07-08 14:02:00,
2013-07-08 06:12:00,51.0,46.0,-100.00,NW,320,4.0,9.0,83,0.00,,,0.04,,2013-07-08 14:12:00,
2013-07-08 06:33:00,51.0,47.0,-100.00,WNW,290,4.0,11.0,85,0.00,,,0.04,,2013-07-08 14:33:00,
2013-07-08 06:43:00,51.0,47.0,-100.00,WNW,290,4.0,11.0,85,0.00,,,0.04,,2013-07-08 14:43:00,
2013-07-08 07:01:00,51.0,46.0,-100.00,West,280,6.0,10.0,85,0.00,,,0.04,,2013-07-08 15:01:00,
2013-07-08 07:11:00,51.0,46.0,-100.00,West,280,6.0,10.0,85,0.00,,,0.04,,2013-07-08 15:11:00,
2013-07-08 07:33:00,50.0,46.0,-100.00,West,280,8.0,16.0,85,0.00,,,0.04,,2013-07-08 15:33:00,
2013-07-08 07:43:00,50.0,46.0,-100.00,West,280,8.0,16.0,85,0.00,,,0.04,,2013-07-08 15:43:00,
2013-07-08 07:53:00,51.0,46.0,-100.00,West,280,6.0,12.0,83,0.00,,,0.04,,2013-07-08 15:53:00,
2013-07-08 08:01:00,51.0,46.0,-100.00,West,280,6.0,12.0,83,0.00,,,0.04,,2013-07-08 16:01:00,
2013-07-08 08:11:00,51.0,46.0,-100.00,West,280,6.0,12.0,83,0.00,,,0.04,,2013-07-08 16:11:00,
2013-07-08 08:22:00,52.0,46.0,-100.00,West,280,5.0,11.0,79,0.00,,,0.04,,2013-07-08 16:22:00,
2013-07-08 08:33:00,52.0,46.0,-100.00,West,280,5.0,11.0,79,0.00,,,0.04,,2013-07-08 16:33:00,
2013-07-08 08:43:00,52.0,46.0,-100.00,West,280,5.0,11.0,79,0.00,,,0.04,,2013-07-08 16:43:00,
2013-07-08 09:13:00,52.0,46.0,-100.00,WNW,285,4.0,7.0,80,0.00,,,0.04,,2013-07-08 17:13:00,
2013-07-08 09:45:00,52.0,46.0,-100.00,West,265,5.0,9.0,79,0.00,,,0.04,,2013-07-08 17:45:00,
2013-07-08 09:54:00,53.0,46.0,-100.00,West,260,6.0,9.0,77,0.00,,,0.04,,2013-07-08 17:54:00,
2013-07-08 10:03:00,53.0,46.0,-100.00,West,260,6.0,9.0,77,0.00,,,0.04,,2013-07-08 18:03:00,
2013-07-08 10:17:00,53.0,46.0,-100.00,West,260,6.0,9.0,77,0.00,,,0.04,,2013-07-08 18:17:00,
2013-07-08 10:37:00,53.0,46.0,-100.00,WSW,255,6.0,10.0,77,0.00,,,0.04,,2013-07-08 18:37:00,
2013-07-08 10:45:00,53.0,46.0,-100.00,WSW,255,6.0,10.0,77,0.00,,,0.04,,2013-07-08 18:45:00,
2013-07-08 10:55:00,55.0,47.0,-100.00,WSW,250,6.0,12.0,74,0.00,,,0.04,,2013-07-08 18:55:00,
2013-07-08 11:07:00,55.0,47.0,-100.00,WSW,250,6.0,12.0,74,0.00,,,0.04,,2013-07-08 19:07:00,
2013-07-08 11:15:00,55.0,47.0,-100.00,WSW,250,6.0,12.0,74,0.00,,,0.04,,2013-07-08 19:15:00,
2013-07-08 11:36:00,55.0,46.0,-100.00,West,275,4.0,9.0,71,0.00,,,0.04,,2013-07-08 19:36:00,
2013-07-08 11:46:00,55.0,46.0,-100.00,West,275,4.0,9.0,71,0.00,,,0.04,,2013-07-08 19:46:00,
2013-07-08 11:54:00,56.0,46.0,-100.00,West,265,3.0,8.0,69,0.00,,,0.04,,2013-07-08 19:54:00,
2013-07-08 12:46:00,57.0,45.0,-100.00,WSW,245,4.0,9.0,65,0.00,,,0.04,,2013-07-08 20:46:00,
2013-07-08 12:55:00,57.0,45.0,-100.00,WNW,290,4.0,7.0,63,0.00,,,0.04,,2013-07-08 20:55:00,
2013-07-08 13:07:00,57.0,45.0,-100.00,WNW,290,4.0,7.0,63,0.00,,,0.04,,2013-07-08 21:07:00,
2013-07-08 13:15:00,57.0,45.0,-100.00,WNW,290,4.0,7.0,63,0.00,,,0.04,,2013-07-08 21:15:00,
2013-07-08 13:38:00,58.0,45.0,-100.00,WNW,285,2.0,9.0,62,0.00,,,0.04,,2013-07-08 21:38:00,
2013-07-08 14:55:00,54.0,48.0,-100.00,North,5,1.0,6.0,77,0.03,,,0.07,,2013-07-08 22:55:00,
2013-07-08 15:07:00,54.0,48.0,-100.00,North,5,1.0,6.0,77,0.03,,,0.07,,2013-07-08 23:07:00,
2013-07-08 15:24:00,54.0,49.0,-100.00,NW,320,2.0,4.0,83,0.03,,,0.03,,2013-07-08 23:24:00,
2013-07-08 15:38:00,54.0,49.0,-100.00,NW,320,2.0,4.0,83,0.03,,,0.03,,2013-07-08 23:38:00,
2013-07-08 15:47:00,54.0,49.0,-100.00,NW,320,2.0,4.0,83,0.03,,,0.03,,2013-07-08 23:47:00,
2013-07-08 15:55:00,56.0,51.0,-100.00,NE,45,2.0,4.0,82,0.00,,,0.03,,2013-07-08 23:55:00,
2013-07-08 16:07:00,56.0,51.0,-100.00,NE,45,2.0,4.0,82,0.00,,,0.03,,2013-07-09 00:07:00,
2013-07-08 16:16:00,56.0,51.0,-100.00,NE,45,2.0,4.0,82,0.00,,,0.03,,2013-07-09 00:16:00,
2013-07-08 16:38:00,57.0,48.0,-100.00,WNW,300,2.0,5.0,71,0.00,,,0.03,,2013-07-09 00:38:00,
2013-07-08 16:55:00,59.0,51.0,-100.00,East,95,0.0,4.0,75,0.00,,,0.03,,2013-07-09 00:55:00,
2013-07-08 17:15:00,59.0,51.0,-100.00,East,95,0.0,4.0,75,0.00,,,0.03,,2013-07-09 01:15:00,
2013-07-08 17:56:00,52.0,44.0,-100.00,West,270,4.0,9.0,75,0.07,,,0.10,,2013-07-09 01:56:00,
2013-07-08 18:18:00,-999.0,-99.9,-100.00,West,270,4.0,9.0,75,0.07,,,0.10,,2013-07-09 02:18:00,
2013-07-08 18:38:00,54.0,43.0,-100.00,WNW,285,4.0,7.0,65,0.01,,,0.10,,2013-07-09 02:38:00,
2013-07-08 18:47:00,54.0,43.0,-100.00,WNW,285,4.0,7.0,65,0.01,,,0.10,,2013-07-09 02:47:00,
2013-07-08 19:06:00,55.0,44.0,-100.00,WNW,290,4.0,8.0,65,0.00,,,0.10,,2013-07-09 03:06:00,
2013-07-08 19:47:00,56.0,45.0,-100.00,SSW,200,2.0,6.0,66,0.00,,,0.10,,2013-07-09 03:47:00,
2013-07-08 20:02:00,54.0,50.0,-100.00,South,190,4.0,8.0,85,0.00,,,0.10,,2013-07-09 04:02:00,
2013-07-08 20:11:00,54.0,50.0,-100.00,South,190,4.0,8.0,85,0.00,,,0.10,,2013-07-09 04:11:00,
2013-07-08 20:33:00,53.0,50.0,-100.00,SSE,160,2.0,6.0,89,0.00,,,0.10,,2013-07-09 04:33:00,
2013-07-08 20:42:00,53.0,50.0,-100.00,SSE,160,2.0,6.0,89,0.00,,,0.10,,2013-07-09 04:42:00,
2013-07-08 20:53:00,52.0,49.0,-100.00,SSW,210,3.0,6.0,90,0.00,,,0.10,,2013-07-09 04:53:00,
2013-07-08 21:02:00,52.0,49.0,-100.00,SSW,210,3.0,6.0,90,0.00,,,0.10,,2013-07-09 05:02:00,
2013-07-08 21:11:00,52.0,49.0,-100.00,SSW,210,3.0,6.0,90,0.00,,,0.10,,2013-07-09 05:11:00,
2013-07-08 21:33:00,52.0,49.0,-100.00,SSE,165,2.0,5.0,90,0.00,,,0.10,,2013-07-09 05:33:00,
2013-07-08 21:42:00,52.0,49.0,-100.00,SSE,165,2.0,5.0,90,0.00,,,0.10,,2013-07-09 05:42:00,
2013-07-08 21:52:00,52.0,49.0,-100.00,SSE,155,2.0,6.0,90,0.00,,,0.10,,2013-07-09 05:52:00,
2013-07-08 22:01:00,52.0,49.0,-100.00,SSE,155,2.0,6.0,90,0.00,,,0.10,,2013-07-09 06:01:00,
2013-07-08 22:11:00,52.0,49.0,-100.00,SSE,155,2.0,6.0,90,0.00,,,0.10,,2013-07-09 06:11:00,
2013-07-08 22:33:00,52.0,49.0,-100.00,SSE,165,4.0,10.0,89,0.00,,,0.10,,2013-07-09 06:33:00,
2013-07-08 22:43:00,52.0,49.0,-100.00,SSE,165,4.0,10.0,89,0.00,,,0.10,,2013-07-09 06:43:00,
2013-07-08 22:53:00,51.0,48.0,-100.00,SW,215,4.0,12.0,90,0.00,,,0.10,,2013-07-09 06:53:00,
2013-07-08 23:02:00,51.0,48.0,-100.00,SW,215,4.0,12.0,90,0.00,,,0.10,,2013-07-09 07:02:00,
2013-07-08 23:11:00,51.0,48.0,-100.00,SW,215,4.0,12.0,90,0.00,,,0.10,,2013-07-09 07:11:00,
2013-07-08 23:22:00,51.0,47.0,-100.00,WSW,250,4.0,9.0,86,0.00,,,0.10,,2013-07-09 07:22:00,
2013-07-08 23:33:00,51.0,47.0,-100.00,WSW,250,4.0,9.0,86,0.00,,,0.10,,2013-07-09 07:33:00,
2013-07-08 23:43:00,51.0,47.0,-100.00,WSW,250,4.0,9.0,86,0.00,,,0.10,,2013-07-09 07:43:00,
2013-07-08 23:53:00,51.0,47.0,-100.00,SSW,195,2.0,11.0,87,0.00,,,0.10,,2013-07-09 07:53:00,